• In Czech Republic
  • List of Countries
  • For 7 days
  • Water Temperature
  • Satellite Maps
  • Weather Map
  • Weather Widgets
  • user-avatar
    Login

    Hourly Weather Carlisle

    Today, 23 October, Monday

    Time Temperature Precipitation Wind Pressure Humidity
    00:00 +7°C° 0 mm 2 mps 758 mmHg 91%
    01:00 +8°C° 0.1 mm 2 mps 757 mmHg 91%
    02:00 +8°C° 0.1 mm 3 mps 757 mmHg 92%
    03:00 +9°C° 0.1 mm 3 mps 757 mmHg 93%
    04:00 +9°C° 0.2 mm 3 mps 757 mmHg 93%
    05:00 +10°C° 0.2 mm 3 mps 756 mmHg 94%
    06:00 +10°C° 0.2 mm 3 mps 756 mmHg 94%
    07:00 +11°C° 0.2 mm 4 mps 756 mmHg 94%
    08:00 +11°C° 0.2 mm 4 mps 756 mmHg 94%
    09:00 +11°C° 0.2 mm 4 mps 755 mmHg 94%
    10:00 +12°C° 0.1 mm 4 mps 755 mmHg 94%
    11:00 +13°C° 0.1 mm 4 mps 756 mmHg 94%
    12:00 +13°C° 0.1 mm 4 mps 756 mmHg 94%
    13:00 +14°C° 0 mm 4 mps 756 mmHg 92%
    14:00 +14°C° 0 mm 4 mps 756 mmHg 91%
    15:00 +15°C° 0 mm 4 mps 756 mmHg 89%
    16:00 +14°C° 0 mm 4 mps 756 mmHg 91%
    17:00 +13°C° 0 mm 4 mps 756 mmHg 92%
    18:00 +13°C° 0 mm 4 mps 756 mmHg 94%
    19:00 +13°C° 0.1 mm 4 mps 757 mmHg 94%
    20:00 +12°C° 0.1 mm 4 mps 757 mmHg 95%
    21:00 +12°C° 0.1 mm 4 mps 757 mmHg 95%
    22:00 +12°C° 0.1 mm 3 mps 757 mmHg 95%
    23:00 +12°C° 0.1 mm 3 mps 757 mmHg 96%

    Tomorrow, 24 October, Tuesday

    Time Temperature Precipitation Wind Pressure Humidity
    00:00 +12°C° 0.1 mm 2 mps 757 mmHg 97%
    01:00 +11°C° 0 mm 3 mps 757 mmHg 97%
    02:00 +11°C° 0 mm 3 mps 756 mmHg 97%
    03:00 +12°C° 0 mm 3 mps 756 mmHg 97%
    04:00 +12°C° 0.1 mm 4 mps 756 mmHg 96%
    05:00 +13°C° 0.1 mm 4 mps 755 mmHg 96%
    06:00 +13°C° 0.1 mm 5 mps 755 mmHg 95%
    07:00 +14°C° 1.8 mm 6 mps 754 mmHg 95%
    08:00 +14°C° 1.8 mm 7 mps 754 mmHg 95%
    09:00 +15°C° 1.8 mm 8 mps 753 mmHg 94%
    10:00 +15°C° 0.2 mm 7 mps 753 mmHg 93%
    11:00 +15°C° 0.2 mm 7 mps 754 mmHg 92%
    12:00 +15°C° 0.2 mm 7 mps 754 mmHg 91%
    13:00 +15°C° 0.3 mm 6 mps 754 mmHg 91%
    14:00 +14°C° 0.3 mm 5 mps 754 mmHg 90%
    15:00 +14°C° 0.3 mm 5 mps 754 mmHg 89%
    16:00 +13°C° 0.9 mm 4 mps 754 mmHg 91%
    17:00 +13°C° 0.9 mm 3 mps 754 mmHg 92%
    18:00 +12°C° 0.9 mm 3 mps 754 mmHg 94%
    19:00 +12°C° 0.8 mm 3 mps 754 mmHg 94%
    20:00 +12°C° 0.8 mm 4 mps 754 mmHg 94%
    21:00 +12°C° 0.8 mm 4 mps 753 mmHg 94%
    22:00 +12°C° 0.3 mm 5 mps 754 mmHg 93%
    23:00 +12°C° 0.3 mm 5 mps 754 mmHg 93%

    Day after tomorrow, 25 October, Wednesday

    Time Temperature Precipitation Wind Pressure Humidity
    00:00 +11°C° 0.3 mm 6 mps 755 mmHg 92%
    01:00 +11°C° 0 mm 6 mps 755 mmHg 92%
    02:00 +10°C° 0 mm 5 mps 755 mmHg 93%
    03:00 +10°C° 0 mm 5 mps 756 mmHg 93%
    04:00 +10°C° 0 mm 6 mps 756 mmHg 92%
    05:00 +10°C° 0 mm 6 mps 756 mmHg 91%
    06:00 +10°C° 0 mm 6 mps 757 mmHg 90%
    07:00 +10°C° 0 mm 7 mps 757 mmHg 89%
    08:00 +11°C° 0 mm 7 mps 758 mmHg 88%
    09:00 +11°C° 0 mm 7 mps 758 mmHg 87%
    10:00 +11°C° 0 mm 7 mps 759 mmHg 85%
    11:00 +12°C° 0 mm 8 mps 759 mmHg 82%
    12:00 +12°C° 0 mm 8 mps 759 mmHg 80%
    13:00 +12°C° 0 mm 7 mps 759 mmHg 81%
    14:00 +12°C° 0 mm 7 mps 759 mmHg 81%
    15:00 +11°C° 0 mm 7 mps 760 mmHg 82%
    16:00 +11°C° 0 mm 6 mps 760 mmHg 84%
    17:00 +10°C° 0 mm 6 mps 760 mmHg 86%
    18:00 +10°C° 0 mm 5 mps 760 mmHg 88%
    19:00 +10°C° 0 mm 5 mps 760 mmHg 88%
    20:00 +10°C° 0 mm 5 mps 761 mmHg 88%
    21:00 +10°C° 0 mm 5 mps 761 mmHg 88%
    22:00 +10°C° 0 mm 5 mps 761 mmHg 88%
    23:00 +10°C° 0 mm 5 mps 761 mmHg 88%

    26 October, Thursday

    Time Temperature Precipitation Wind Pressure Humidity
    00:00 +10°C° 0 mm 5 mps 761 mmHg 88%
    01:00 +9°C° 0 mm 5 mps 761 mmHg 88%
    02:00 +10°C° 0 mm 4 mps 762 mmHg 89%
    03:00 +10°C° 0 mm 4 mps 762 mmHg 90%
    04:00 +10°C° 0 mm 4 mps 762 mmHg 91%
    05:00 +10°C° 0 mm 4 mps 762 mmHg 92%
    06:00 +8°C° 0 mm 4 mps 762 mmHg 92%
    07:00 +10°C° 0 mm 4 mps 762 mmHg 91%
    08:00 +10°C° 0 mm 4 mps 763 mmHg 89%
    09:00 +11°C° 0 mm 4 mps 763 mmHg 88%
    10:00 +10°C° 0 mm 5 mps 763 mmHg 85%
    11:00 +12°C° 0 mm 5 mps 764 mmHg 83%
    12:00 +12°C° 0 mm 5 mps 764 mmHg 80%
    13:00 +12°C° 0 mm 5 mps 764 mmHg 81%
    14:00 +12°C° 0 mm 4 mps 764 mmHg 81%
    15:00 +12°C° 0 mm 4 mps 764 mmHg 82%
    16:00 +11°C° 0 mm 4 mps 764 mmHg 85%
    17:00 +11°C° 0 mm 3 mps 764 mmHg 88%
    18:00 +10°C° 0 mm 3 mps 764 mmHg 91%
    19:00 +10°C° 0 mm 3 mps 765 mmHg 92%
    20:00 +9°C° 0 mm 3 mps 765 mmHg 93%
    21:00 +9°C° 0 mm 3 mps 765 mmHg 93%
    22:00 +9°C° 0 mm 3 mps 765 mmHg 93%
    23:00 +8°C° 0 mm 3 mps 765 mmHg 94%

    27 October, Friday

    Time Temperature Precipitation Wind Pressure Humidity
    00:00 +8°C° 0 mm 3 mps 766 mmHg 94%
    01:00 +8°C° 0 mm 3 mps 766 mmHg 93%
    02:00 +9°C° 0 mm 3 mps 766 mmHg 93%
    03:00 +9°C° 0 mm 3 mps 766 mmHg 92%
    04:00 +8°C° 0 mm 3 mps 766 mmHg 93%
    05:00 +8°C° 0 mm 3 mps 766 mmHg 94%
    06:00 +7°C° 0 mm 3 mps 767 mmHg 95%
    07:00 +8°C° 0 mm 3 mps 767 mmHg 92%
    08:00 +8°C° 0 mm 3 mps 767 mmHg 90%
    09:00 +9°C° 0 mm 3 mps 768 mmHg 88%
    10:00 +10°C° 0 mm 4 mps 768 mmHg 84%
    11:00 +9°C° 0 mm 5 mps 767 mmHg 80%
    12:00 +10°C° 0 mm 6 mps 767 mmHg 75%
    13:00 +10°C° 0 mm 6 mps 767 mmHg 76%
    14:00 +10°C° 0 mm 7 mps 767 mmHg 77%
    15:00 +10°C° 0 mm 7 mps 767 mmHg 78%
    16:00 +9°C° 0 mm 7 mps 766 mmHg 78%
    17:00 +9°C° 0 mm 7 mps 766 mmHg 79%
    18:00 +8°C° 0 mm 7 mps 766 mmHg 80%
    19:00 +8°C° 0 mm 7 mps 766 mmHg 80%
    20:00 +7°C° 0 mm 8 mps 766 mmHg 80%
    21:00 +9°C° 0 mm 8 mps 765 mmHg 80%
    22:00 +9°C° 0 mm 7 mps 765 mmHg 81%
    23:00 +9°C° 0 mm 7 mps 765 mmHg 81%

    28 October, Saturday

    Time Temperature Precipitation Wind Pressure Humidity
    00:00 +9°C° 0 mm 7 mps 764 mmHg 82%
    01:00 +9°C° 0 mm 6 mps 764 mmHg 83%
    02:00 +9°C° 0 mm 6 mps 764 mmHg 83%
    03:00 +10°C° 0 mm 6 mps 764 mmHg 84%
    04:00 +10°C° 0 mm 5 mps 764 mmHg 85%
    05:00 +10°C° 0 mm 5 mps 764 mmHg 86%
    06:00 +10°C° 0 mm 5 mps 764 mmHg 87%
    07:00 +10°C° 0 mm 5 mps 764 mmHg 86%
    08:00 +10°C° 0 mm 5 mps 765 mmHg 86%
    09:00 +11°C° 0 mm 4 mps 765 mmHg 86%
    10:00 +12°C° 0 mm 5 mps 765 mmHg 84%
    11:00 +12°C° 0 mm 5 mps 765 mmHg 83%
    12:00 +13°C° 0 mm 6 mps 765 mmHg 81%
    13:00 +13°C° 0 mm 6 mps 765 mmHg 82%
    14:00 +11°C° 0 mm 6 mps 765 mmHg 82%
    15:00 +11°C° 0 mm 6 mps 764 mmHg 82%
    16:00 +11°C° 0 mm 6 mps 765 mmHg 84%
    17:00 +10°C° 0 mm 6 mps 765 mmHg 85%
    18:00 +9°C° 0 mm 5 mps 765 mmHg 87%
    19:00 +9°C° 0 mm 5 mps 765 mmHg 88%
    20:00 +8°C° 0 mm 5 mps 765 mmHg 89%
    21:00 +8°C° 0 mm 5 mps 765 mmHg 90%
    22:00 +8°C° 0 mm 5 mps 765 mmHg 89%
    23:00 +7°C° 0 mm 5 mps 765 mmHg 88%

    29 October, Sunday

    Time Temperature Precipitation Wind Pressure Humidity
    00:00 +7°C° 0 mm 4 mps 765 mmHg 87%
    01:00 +7°C° 0 mm 4 mps 764 mmHg 87%
    02:00 +7°C° 0 mm 4 mps 764 mmHg 86%
    03:00 +7°C° 0 mm 4 mps 763 mmHg 86%
    04:00 +8°C° 0.1 mm 5 mps 763 mmHg 88%
    05:00 +9°C° 0.1 mm 5 mps 763 mmHg 91%
    06:00 +11°C° 0.1 mm 6 mps 762 mmHg 93%
    07:00 +11°C° 0.1 mm 6 mps 762 mmHg 93%
    08:00 +13°C° 0.1 mm 6 mps 762 mmHg 92%
    09:00 +13°C° 0.1 mm 6 mps 762 mmHg 92%
    10:00 +12°C° 0.1 mm 7 mps 762 mmHg 90%
    11:00 +14°C° 0.1 mm 7 mps 762 mmHg 89%
    12:00 +13°C° 0.1 mm 8 mps 762 mmHg 87%
    13:00 +12°C° 0 mm 7 mps 762 mmHg 84%
    14:00 +12°C° 0 mm 7 mps 762 mmHg 81%
    15:00 +11°C° 0 mm 7 mps 763 mmHg 78%
    16:00 +10°C° 0 mm 6 mps 763 mmHg 80%
    17:00 +9°C° 0 mm 6 mps 764 mmHg 81%
    18:00 +8°C° 0 mm 5 mps 764 mmHg 82%
    19:00 +8°C° 0 mm 5 mps 765 mmHg 84%
    20:00 +7°C° 0 mm 4 mps 765 mmHg 86%
    21:00 +6°C° 0 mm 4 mps 766 mmHg 87%
    22:00 +6°C° 0 mm 4 mps 766 mmHg 88%
    23:00 +5°C° 0 mm 4 mps 767 mmHg 88%
    Show more